Location: B�nac
(43.1534°N, 0.0251°E)
Time: 20:27:03
(UTC+00:00)

Daily predictions for brighter satellites

Satellite Brightness Start Highest point End
(mag) Time Altitude Azimuth Time Altitude Azimuth Time Altitude Azimuth
ADEOS Rocket 3.6 17:20:45 10° N 17:27:03 73° WNW 17:34:02 10° SSW
Cosmos 1825 Rocket 4.1 17:24:48 10° N 17:28:57 37° ENE 17:33:03 10° SE
BREEZE-M DEB (TANK) 4.4 17:26:36 10° W 17:29:50 46° N 17:39:55 10° ENE
ERS-2 2.1 17:26:24 10° NNE 17:30:03 71° ESE 17:33:41 10° S
YAOGAN 1 4.1 17:28:41 10° ESE 17:31:22 16° ENE 17:34:04 10° NNE
USA 281 3.4 17:25:30 10° SSE 17:32:04 81° WSW 17:38:40 10° NNW
Lacrosse 5 3.5 17:28:30 10° W 17:32:45 26° NNW 17:36:59 10° NNE
Cosmos 2219 4.4 17:30:57 10° N 17:35:26 23° NE 17:39:55 10° ESE
AQUARIUS 4.3 17:31:26 10° SSE 17:35:55 86° WSW 17:40:27 10° NNW
Cosmos 1655 Rocket 4.4 17:33:48 10° N 17:40:12 76° W 17:46:35 10° S
Cosmos 1400 Rocket 4.2 17:38:07 10° SE 17:41:10 20° E 17:44:12 10° NE
CZ-4B R/B 1.2 17:38:07 10° NNE 17:41:24 87° ESE 17:44:34 10° SSW
SAR-Lupe-4 3.7 17:38:23 10° NNE 17:41:54 50° E 17:45:23 10° S
Cosmos 44 3.8 17:38:29 10° S 17:42:27 33° ESE 17:46:39 10° NE
Cosmos 1726 Rocket 4.0 17:40:06 10° SSE 17:44:06 38° E 17:48:09 10° NNE
Okean-O 3.5 17:40:45 10° SE 17:44:31 28° ENE 17:48:17 10° N
Cosmos 1758 Rocket 3.5 17:41:52 10° N 17:46:18 75° E 17:50:39 10° SSE
Meteor 2-14 Rocket 4.4 17:43:13 10° N 17:49:22 70° E 17:55:27 10° SSE
Meteor 2-21 4.4 17:47:00 10° N 17:53:12 79° E 17:59:18 10° SSE
CZ-4B R/B 4.4 17:50:12 10° S 17:55:37 49° W 18:01:01 10° NNW
Aureole 3 3.8 17:54:04 10° SSE 17:56:57 26° E 17:59:34 10° NE
FALCON 9 DEB 3.9 17:55:12 10° SSW 17:58:07 32° SE 17:59:55 18° E
Cosmos 1331 Rocket 3.9 17:53:09 10° S 17:58:16 71° ESE 18:03:25 10° NNE
Cosmos 1606 Rocket 3.5 17:54:06 10° S 17:58:25 72° E 18:02:48 10° NNE
OAO 3 Rocket 4.5 17:54:31 10° WSW 17:58:43 31° S 18:02:49 10° ESE
SAR-Lupe-1 4.0 17:56:01 10° NNE 17:59:37 79° E 18:03:12 10° S
Cosmos 2228 2.9 17:58:30 10° S 18:02:43 85° E 18:07:01 10° N
GENESIS II 4.2 17:58:52 10° SSW 18:02:53 71° ESE 18:06:55 10° NE
SKYMED 2 3.5 17:59:07 10° NNE 18:03:28 67° ESE 18:07:46 10° S
ATLAS 5 CENTAUR R/B 4.2 18:01:18 10° WNW 18:03:33 14° NNW 18:05:58 10° N
SL-4 R/B 3.4 18:02:30 10° WNW 18:05:26 23° N 18:08:01 12° NE
FALCON 9 DEB 3.5 18:02:40 10° SSW 18:05:41 40° SE 18:07:15 23° E
CZ-2C R/B 3.7 18:01:46 10° SE 18:07:11 42° ENE 18:12:31 10° N
Cosmos 292 Rocket 3.7 18:02:45 10° S 18:07:28 64° ESE 18:12:14 10° NNE
ARGOS 4.2 18:09:08 15° ESE 18:12:13 25° ENE 18:16:32 10° N
Cosmos 1346 Rocket 4.3 18:10:43 10° NNE 18:12:50 18° NE 18:12:50 18° NE
FALCON 9 DEB 3.3 18:10:36 10° SSW 18:13:44 46° SE 18:15:00 28° E
Cosmos 2227 Rocket 2.9 18:08:55 10° N 18:13:58 32° NE 18:17:08 19° ESE
Meteor 2-10 Rocket 4.4 18:09:56 10° SSE 18:14:26 27° E 18:18:47 10° NNE
SeaSat 1 3.4 18:14:54 20° E 18:17:02 28° NE 18:21:12 10° N
Cosmos 1892 3.6 18:15:03 10° NNE 18:18:28 28° ENE 18:19:18 26° E
CZ-2D R/B 3.1 18:15:02 10° SSE 18:18:49 74° ENE 18:22:38 10° N
Cosmos 1656 4.0 18:16:00 10° S 18:21:08 40° ESE 18:26:21 10° NE
USA 215 4.2 18:17:29 17° ENE 18:21:29 32° NNE 18:27:07 10° NW
Meteor 2-16 Rocket 4.4 18:17:13 10° N 18:23:21 86° E 18:29:26 10° S
Cosmos 1110 Rocket 4.5 18:18:47 10° SSW 18:23:59 63° WNW 18:29:11 10° NNE
ATLAS 2AS CENTAUR R/B 4.4 18:19:13 10° NNW 18:24:22 19° NNE 18:27:53 14° NE
CSL-04 Rocket 4.1 18:19:46 10° SE 18:24:57 42° ENE 18:30:08 10° N
Cosmos 2058 Rocket 3.0 18:20:36 10° S 18:25:01 68° E 18:29:31 10° NNE
Cosmos 968 Rocket 4.2 18:20:24 10° N 18:25:07 33° ENE 18:26:57 26° E
CZ-4 R/B 4.4 18:21:00 10° SSE 18:25:09 87° WSW 18:29:20 10° NNW
Cosmos 1302 Rocket 3.9 18:21:36 10° S 18:26:46 65° ESE 18:32:01 10° NNE
Cosmos 1953 Rocket 3.7 18:23:43 10° N 18:28:08 77° W 18:32:32 10° S
FALCON 9 DEB 2.8 18:25:13 10° SW 18:28:25 70° SE 18:29:11 46° ENE
Cosmos 1300 3.2 18:25:42 10° SSW 18:29:27 60° W 18:33:14 10° N
Cosmos 1486 Rocket 4.5 18:26:39 10° N 18:31:39 39° ENE 18:33:47 28° ESE
USA 307 4.5 18:28:20 10° NW 18:31:42 22° NNE 18:32:53 19° NE
Cosmos 1697 Rocket 3.5 18:28:23 10° SSE 18:32:53 27° ESE 18:32:53 27° ESE
USA 308 4.4 18:33:06 10° NW 18:36:30 22° NNE 18:37:27 21° NNE
Helios 1A Rocket 3.1 18:32:28 10° S 18:36:35 72° WSW 18:40:43 10° NNW
GEOS 3 Rocket 3.6 18:36:45 23° SE 18:40:06 67° NE 18:45:28 10° NNW
S3M 4.0 18:36:17 10° SSE 18:42:10 52° E 18:48:06 10° NNE
Timation 2 Rocket 4.2 18:37:34 10° NNW 18:44:12 84° WSW 18:51:02 10° SSE
DMSP B5D1-3 4.4 18:39:07 10° NNE 18:44:15 64° ESE 18:49:21 10° S
Cosmos 1939 Rocket 4.3 18:40:40 10° SSW 18:44:25 38° W 18:48:08 10° NNW
CRYOSAT 2 4.4 18:40:57 10° NNE 18:45:43 53° E 18:50:27 10° S
Milstar 3 4.2 18:43:43 10° SW 18:48:58 24° S 18:51:54 18° SE
COSMO-SKYMED 1 4.1 18:47:24 10° N 18:51:24 37° WNW 18:55:24 10° SW
Cosmos 1417 Rocket 4.4 18:48:15 10° S 18:54:28 82° E 19:00:48 10° N
Cosmos 2297 Rocket 2.1 18:48:56 10° NNW 18:54:38 77° ENE 18:57:46 28° SSE
In-Cosmos 22 Rocket 4.2 18:52:55 10° NNW 18:58:16 79° W 19:03:43 10° S
H-2A R/B 2.0 18:53:06 10° SSE 18:58:28 79° ENE 19:03:57 10° N
Cosmos 2058 3.3 18:54:55 10° N 18:57:58 45° NNE 18:57:58 45° NNE
MOS 1 Rocket 3.2 18:55:11 10° NNE 18:59:49 82° ESE 19:04:44 10° S
CSL-04 Debris 4.1 18:56:06 10° SSE 19:01:31 89° E 19:07:01 10° NNW
CZ-4 R/B 2.4 18:58:27 10° S 19:02:13 44° W 19:05:57 10° NNW
Cosmos 1340 3.3 18:59:03 10° NNW 19:02:45 55° W 19:05:57 13° S
Aureole 3 Rocket 4.1 19:00:36 10° SSW 19:04:05 43° WNW 19:08:39 10° N
YAOGAN 1 3.4 19:02:51 10° S 19:07:03 51° W 19:11:17 10° NNW
Cosmos 1992 Rocket 3.9 19:04:28 10° S 19:09:12 60° SE 19:09:12 60° SE
SJ-11-01 4.4 19:09:49 20° S 19:12:59 73° WSW 19:17:40 10° NNW
Cosmos 1553 Rocket 4.4 19:07:09 10° SSW 19:13:29 65° W 19:19:45 10° N
Ariane Rocket 4.3 19:18:51 27° NNE 19:18:51 27° NNE 19:21:26 10° N
Lacrosse 5 3.9 19:14:01 10° NW 19:17:16 17° N 19:18:09 16° NNE
Cosmos 2219 3.6 19:14:23 10° NNW 19:20:05 64° WSW 19:23:22 26° S
BREEZE-M R/B 4.4 19:17:19 10° WNW 19:21:53 52° NNE 19:23:14 46° NE
Atlas Centaur 2 4.0 19:23:42 10° SW 19:30:40 29° S 19:31:14 29° SSE
Cosmos 2082 3.8 19:25:18 10° NNW 19:30:18 62° NNE 19:30:18 62° NNE
CZ-4C R/B 4.3 19:32:27 10° NNW 19:37:16 21° NNE 19:37:16 21° NNE
ARGOS 4.0 19:50:40 38° SW 19:52:09 48° W 19:57:25 10° NNW
SeaSat 1 3.4 19:54:42 44° W 19:54:42 44° W 19:59:05 10° NW
Cosmos 2227 Rocket 3.3 19:52:49 10° NW 19:58:06 41° WSW 19:59:01 38° SW
NOSS 3-3 (A) 4.4 19:57:05 10° SW 20:01:36 54° WSW 20:01:36 54° WSW
NOSS 3-3 (C) 4.4 19:57:10 10° SW 20:01:43 55° WSW 20:01:43 55° WSW
USA 215 3.5 20:04:50 60° NNW 20:04:50 60° NNW 20:10:20 10° NW
Cosmos 2263 Rocket 4.2 20:04:16 10° NNW 20:05:55 19° N 20:05:55 19° N
Cosmos 1709 Rocket 4.5 20:04:33 10° NNW 20:10:33 59° W 20:10:33 59° W
Cosmos 1697 Rocket 4.1 20:11:19 10° SW 20:14:43 33° WSW 20:14:43 33° WSW
ATLAS 2AS CENTAUR R/B 3.8 20:10:15 10° NNW 20:15:19 37° N 20:15:19 37° N
